QPF
0.00 0.00 0.00 0.00 0.00 0.00 0.00 0.00 0.00 0.00 0.00 0.00 0.00 0.00 0.00 0.00 0.00 0.00 0.00 0.00 0.00 0.00 0.00 0.00 0.00 0.00 0.00 0.00 0.00 0.00 0.00 0.00 0.00 0.00 0.00 0.00 0.00 0.00 0.00 0.00 0.00 0.00 0.00
0.00 0.00 0.00 0.00 0.00 0.00 0.00 0.00 0.00 0.00 0.00 0.00 0.00 0.00 0.00 0.00 0.00 0.00 0.00 0.00 0.00 0.00 0.00 0.00 0.00 0.00 0.00 0.00 0.00 0.00 0.00 0.00 0.00 0.00 0.00 0.00 0.00 0.00 0.00 0.00 0.00 0.00 0.00
0.00 0.00 0.00 0.00 0.00 0.00 0.00 0.00 0.00 0.00 0.00 0.00 0.00 0.00 0.00 0.00 0.00 0.00 0.00 0.00 0.00 0.00 0.00 0.00 0.00 0.00 0.00 0.00 0.00 0.00 0.00 0.00 0.00 0.00 0.00 0.00 0.00 0.00 0.00 0.00 0.00 0.00 0.00
0.00 0.00 0.00 0.00 0.00 0.00 0.00 0.00 0.00 0.00 0.00 0.00 0.00 0.00 0.00 0.00 0.00 0.00 0.00 0.00 0.00 0.00 0.00 0.00 0.00 0.00 0.00 0.00 0.00 0.00 0.00 0.00 0.00 0.00 0.00 0.00 0.00 0.00 0.00 0.00 0.00 0.00 0.00
0.00 0.00 0.00 0.00 0.00 0.00 0.00 0.00 0.00 0.00 0.00 0.00 0.00 0.00 0.00 0.00 0.00 0.00 0.00 0.00 0.00 0.00 0.00 0.00 0.00 0.00 0.00 0.00 0.00 0.00 0.00 0.00 0.00 0.00 0.00 0.00 0.00 0.00 0.00 0.00 0.00 0.00 0.00
0.00 0.00 0.00 0.00 0.00 0.00 0.00 0.00 0.00 0.00 0.00 0.00 0.00 0.00 0.00 0.00 0.00 0.00 0.00 0.00 0.00 0.00 0.00 0.00 0.00 0.00 0.00 0.00 0.00 0.00 0.00 0.00 0.00 0.00 0.00 0.00 0.00 0.00 0.00 0.00 0.00 0.00 0.00
0.00 0.00 0.00 0.00 0.00 0.00 0.00 0.00 0.00 0.00 0.00 0.00 0.00 0.00 0.00 0.00 0.00 0.00 0.00 0.00 0.00 0.00 0.00 0.00 0.00 0.00 0.00 0.00 0.00 0.00 0.00 0.00 0.00 0.00 0.00 0.00 0.00 0.00 0.00 0.00 0.00 0.00 0.00
0.00 0.00 0.00 0.00 0.00 0.00 0.00 0.00 0.00 0.00 0.00 0.00 0.00 0.00 0.00 0.00 0.00 0.00 0.00 0.00 0.00 0.00 0.00 0.00 0.00 0.00 0.00 0.00 0.00 0.00 0.00 0.00 0.00 0.00 0.00 0.00 0.00 0.00 0.00 0.00 0.00 0.00 0.00
0.02 0.02 0.00 0.00 0.00 0.00 0.00 0.00 0.00 0.00 0.00 0.00 0.00 0.00 0.00 0.00 0.00 0.00 0.00 0.00 0.00 0.00 0.00 0.00 0.00 0.00 0.00 0.00 0.00 0.00 0.00 0.00 0.00 0.00 0.00 0.00 0.00 0.00 0.00 0.00 0.00 0.00 0.00
0.08 0.06 0.01 0.00 0.00 0.00 0.00 0.00 0.00 0.00 0.00 0.00 0.00 0.00 0.00 0.00 0.00 0.00 0.00 0.00 0.00 0.00 0.00 0.00 0.00 0.00 0.00 0.00 0.00 0.00 0.00 0.00 0.00 0.00 0.00 0.00 0.00 0.00 0.00 0.00 0.00 0.00 0.00
0.10 0.10 0.05 0.03 0.03 0.02 0.00 0.00 0.00 0.00 0.00 0.00 0.00 0.00 0.00 0.00 0.00 0.00 0.00 0.00 0.00 0.00 0.00 0.00 0.00 0.00 0.00 0.00 0.00 0.00 0.00 0.00 0.00 0.00 0.00 0.00 0.01 0.00 0.00 0.01 0.01 0.00 0.00
0.01 0.01 0.01 0.02 0.02 0.01 0.01 0.01 0.01 0.00 0.00 0.00 0.00 0.00 0.00 0.00 0.00 0.00 0.00 0.00 0.02 0.00 0.00 0.00 0.00 0.00 0.00 0.00 0.00 0.00 0.00 0.00 0.00 0.00 0.00 0.00 0.01 0.01 0.03 0.05 0.03 0.01 0.00
0.00 0.00 0.00 0.00 0.00 0.00 0.00 0.00 0.00 0.01 0.01 0.00 0.00 0.02 0.01 0.00 0.01 0.06 0.07 0.05 0.04 0.01 0.00 0.00 0.00 0.00 0.00 0.00 0.00 0.02 0.03 0.00 0.00 0.00 0.01 0.03 0.02 0.04 0.08 0.07 0.07 0.06 0.03
0.00 0.00 0.00 0.00 0.00 0.00 0.00 0.00 0.00 0.00 0.00 0.01 0.01 0.01 0.00 0.00 0.08 0.12 0.08 0.04 0.00 0.00 0.01 0.00 0.00 0.00 0.00 0.01 0.06 0.08 0.03 0.09 0.08 0.02 0.02 0.00 0.02 0.05 0.04 0.08 0.09 0.09 0.05
0.00 0.00 0.00 0.00 0.00 0.00 0.00 0.00 0.00 0.00 0.01 0.01 0.01 0.01 0.01 0.01 0.10 0.10 0.09 0.12 0.16 0.26 0.20 0.02 0.01 0.00 0.00 0.00 0.04 0.12 0.02 0.08 0.03 0.00 0.00 0.00 0.03 0.08 0.10 0.11 0.10 0.08 0.06
0.00 0.00 0.00 0.00 0.00 0.00 0.00 0.00 0.00 0.00 0.00 0.02 0.01 0.00 0.02 0.05 0.04 0.06 0.14 0.24 0.30 0.39 0.25 0.07 0.02 0.01 0.00 0.00 0.00 0.03 0.03 0.07 0.10 0.04 0.00 0.02 0.09 0.13 0.13 0.13 0.11 0.11 0.08
0.00 0.00 0.00 0.00 0.00 0.00 0.00 0.00 0.00 0.00 0.00 0.00 0.00 0.00 0.00 0.00 0.00 0.00 0.01 0.01 0.02 0.06 0.03 0.02 0.01 0.00 0.03 0.02 0.01 0.01 0.04 0.01 0.01 0.01 0.00 0.05 0.14 0.13 0.14 0.14 0.15 0.12 0.08
0.00 0.00 0.00 0.00 0.00 0.00 0.00 0.00 0.00 0.00 0.00 0.00 0.00 0.00 0.00 0.00 0.00 0.00 0.00 0.00 0.00 0.00 0.00 0.00 0.01 0.02 0.03 0.01 0.01 0.01 0.00 0.00 0.00 0.00 0.00 0.01 0.04 0.08 0.13 0.13 0.11 0.14 0.13
0.00 0.00 0.00 0.00 0.00 0.00 0.00 0.00 0.00 0.00 0.00 0.00 0.00 0.00 0.00 0.00 0.00 0.01 0.01 0.00 0.00 0.01 0.04 0.05 0.13 0.11 0.04 0.02 0.01 0.02 0.01 0.00 0.00 0.00 0.00 0.02 0.03 0.06 0.10 0.08 0.10 0.19 0.19
0.00 0.00 0.00 0.00 0.00 0.00 0.00 0.00 0.00 0.00 0.00 0.00 0.00 0.00 0.00 0.00 0.00 0.00 0.00 0.00 0.00 0.01 0.06 0.12 0.13 0.08 0.03 0.02 0.05 0.05 0.01 0.00 0.00 0.00 0.00 0.00 0.02 0.04 0.03 0.07 0.12 0.12 0.04
0.00 0.00 0.00 0.00 0.00 0.00 0.00 0.00 0.00 0.00 0.00 0.00 0.00 0.00 0.00 0.00 0.00 0.00 0.00 0.00 0.00 0.01 0.03 0.06 0.05 0.07 0.06 0.05 0.05 0.02 0.00 0.00 0.00 0.00 0.00 0.00 0.01 0.01 0.02 0.03 0.02 0.02 0.01
0.00 0.00 0.00 0.00 0.00 0.00 0.00 0.00 0.00 0.00 0.00 0.00 0.00 0.00 0.00 0.00 0.00 0.00 0.01 0.01 0.01 0.02 0.04 0.03 0.02 0.02 0.01 0.01 0.00 0.00 0.00 0.00 0.00 0.00 0.00 0.00 0.00 0.00 0.00 0.01 0.01 0.01 0.01
0.00 0.00 0.00 0.00 0.00 0.00 0.00 0.00 0.00 0.00 0.00 0.00 0.00 0.00 0.00 0.00 0.00 0.00 0.00 0.01 0.02 0.02 0.03 0.03 0.05 0.04 0.03 0.03 0.01 0.00 0.00 0.00 0.01 0.01 0.00 0.00 0.00 0.00 0.00 0.00 0.00 0.00 0.00
0.00 0.00 0.00 0.00 0.00 0.00 0.00 0.00 0.00 0.00 0.00 0.00 0.00 0.00 0.00 0.00 0.00 0.00 0.00 0.00 0.01 0.02 0.03 0.04 0.05 0.05 0.06 0.05 0.04 0.02 0.02 0.01 0.01 0.01 0.00 0.00 0.00 0.00 0.00 0.00 0.00 0.00 0.00
0.00 0.00 0.00 0.00 0.00 0.00 0.00 0.00 0.00 0.00 0.00 0.00 0.00 0.00 0.00 0.00 0.00 0.00 0.00 0.00 0.00 0.00 0.00 0.00 0.01 0.02 0.02 0.02 0.03 0.02 0.04 0.03 0.02 0.01 0.00 0.00 0.00 0.00 0.00 0.00 0.00 0.00 0.00
0.00 0.00 0.00 0.00 0.00 0.00 0.00 0.00 0.00 0.00 0.00 0.00 0.00 0.00 0.00 0.00 0.00 0.00 0.00 0.00 0.00 0.00 0.00 0.00 0.00 0.00 0.00 0.00 0.00 0.00 0.01 0.02 0.01 0.01 0.01 0.00 0.00 0.00 0.00 0.00 0.00 0.00 0.00
MSLP
1013.96 1014.35 1014.83 1015.40 1016.06 1016.42 1016.65 1017.04 1017.30 1017.50 1017.82 1017.92 1018.13 1018.35 1018.52 1018.73 1018.90 1019.32 1019.54 1019.64 1019.74 1019.89 1020.05 1020.17 1020.21 1020.21 1019.94 1019.97 1020.09 1020.09 1019.99 1020.02 1019.27 1018.26 1018.14 1018.01 1017.85 1017.35 1016.76 1016.47 1016.31 1016.17 1015.85
1013.00 1013.74 1014.31 1014.94 1015.45 1015.86 1016.10 1016.40 1016.79 1017.04 1017.22 1017.46 1017.80 1017.99 1018.10 1018.26 1018.46 1018.65 1018.83 1018.87 1019.10 1019.20 1019.32 1019.49 1019.40 1019.35 1019.52 1019.48 1019.42 1019.45 1019.23 1019.18 1019.14 1018.00 1017.57 1017.39 1017.25 1016.99 1016.58 1016.31 1015.66 1015.29 1015.16
1012.42 1013.03 1013.57 1014.23 1014.77 1015.04 1015.52 1015.86 1016.30 1016.57 1016.75 1016.91 1017.28 1017.53 1017.59 1017.73 1017.96 1018.15 1018.23 1018.28 1018.43 1018.49 1018.62 1018.71 1018.63 1018.70 1018.77 1018.70 1018.78 1018.58 1018.38 1018.29 1018.26 1018.00 1016.90 1016.81 1016.78 1016.62 1015.88 1015.56 1015.19 1014.84 1014.76
1011.77 1012.44 1012.91 1013.33 1013.88 1014.26 1014.80 1015.35 1015.71 1016.03 1016.25 1016.53 1016.80 1017.02 1017.17 1017.31 1017.45 1017.62 1017.74 1017.79 1017.83 1017.92 1018.00 1018.06 1018.11 1018.14 1018.18 1018.26 1018.18 1018.10 1017.96 1017.71 1017.36 1017.26 1016.89 1016.25 1016.00 1015.73 1015.46 1014.96 1014.36 1013.92 1013.93
1011.28 1011.83 1012.33 1012.91 1013.41 1013.91 1014.22 1014.66 1015.15 1015.55 1015.76 1015.93 1016.28 1016.47 1016.58 1016.78 1016.84 1017.06 1017.27 1017.32 1017.33 1017.31 1017.34 1017.41 1017.43 1017.49 1017.54 1017.61 1017.46 1017.15 1017.20 1017.01 1016.58 1016.32 1016.07 1015.26 1014.57 1014.06 1013.92 1013.52 1013.51 1013.64 1013.52
1011.09 1011.34 1011.84 1012.59 1013.14 1013.44 1013.81 1014.17 1014.63 1014.95 1015.16 1015.45 1015.63 1015.83 1015.96 1015.96 1015.98 1016.45 1016.77 1016.64 1016.66 1016.65 1016.50 1016.47 1016.59 1016.78 1016.89 1016.93 1016.79 1016.64 1016.56 1016.32 1015.88 1015.65 1014.97 1014.33 1013.82 1013.65 1013.32 1013.17 1013.14 1013.23 1013.13
1010.97 1011.32 1011.60 1011.83 1012.41 1012.65 1013.01 1013.41 1013.72 1014.11 1014.47 1014.62 1014.80 1015.03 1015.13 1015.22 1015.44 1015.72 1016.06 1016.28 1015.97 1015.72 1015.62 1015.57 1015.52 1015.37 1015.53 1015.68 1015.57 1015.68 1015.58 1015.43 1015.19 1014.89 1014.51 1013.80 1013.31 1013.08 1013.13 1013.02 1012.99 1013.21 1013.45
1010.91 1011.22 1011.61 1011.67 1012.19 1012.21 1012.57 1012.63 1013.06 1013.33 1013.58 1013.73 1013.87 1014.09 1014.25 1014.25 1014.54 1014.87 1015.17 1015.40 1015.26 1014.99 1014.81 1014.67 1014.63 1014.47 1014.51 1014.55 1014.58 1014.47 1014.20 1013.82 1013.66 1013.93 1013.82 1013.10 1012.82 1012.67 1012.73 1012.67 1012.84 1013.28 1013.94
1011.20 1011.29 1011.48 1011.78 1012.04 1012.03 1012.01 1012.27 1012.37 1012.48 1012.65 1012.80 1012.89 1013.00 1013.20 1013.27 1013.56 1013.88 1014.41 1014.62 1014.36 1013.99 1013.81 1013.69 1013.73 1013.71 1013.55 1013.67 1013.94 1013.64 1013.22 1012.68 1012.00 1012.32 1012.33 1012.28 1012.24 1012.23 1012.49 1012.56 1012.47 1012.92 1013.05
1011.85 1011.99 1011.95 1011.93 1012.02 1011.93 1011.87 1011.81 1011.73 1011.83 1011.83 1012.04 1011.78 1011.87 1012.03 1012.25 1012.54 1012.94 1013.46 1013.52 1013.16 1012.92 1012.74 1012.67 1012.78 1012.93 1012.82 1012.93 1013.34 1013.04 1012.58 1011.88 1011.63 1011.62 1011.81 1012.24 1011.91 1011.62 1012.21 1012.36 1011.95 1012.21 1012.64
1010.30 1012.56 1011.84 1011.47 1011.58 1011.65 1011.75 1011.77 1011.66 1011.46 1011.37 1011.10 1011.04 1011.09 1011.22 1011.44 1011.53 1011.84 1012.34 1012.61 1012.09 1011.79 1011.49 1011.29 1011.35 1011.62 1012.00 1012.13 1012.31 1012.34 1011.69 1011.56 1011.42 1011.36 1011.09 1010.99 1010.83 1010.89 1011.07 1011.27 1011.34 1011.43 1011.80
1011.76 1013.00 1012.38 1011.38 1011.80 1011.85 1011.89 1011.68 1011.63 1011.37 1011.04 1010.89 1010.64 1010.41 1010.17 1010.39 1010.60 1010.97 1011.42 1011.56 1011.42 1011.26 1010.62 1010.22 1010.20 1010.65 1011.01 1011.20 1011.54 1011.46 1011.35 1011.41 1011.31 1010.95 1010.63 1010.42 1010.13 1009.96 1010.32 1010.47 1010.53 1010.74 1011.18
1012.83 1012.41 1011.17 1011.60 1012.09 1012.41 1011.97 1011.67 1011.58 1011.24 1010.98 1010.75 1010.24 1009.98 1009.72 1009.59 1009.87 1010.06 1010.32 1010.57 1010.53 1010.98 1009.99 1009.60 1009.82 1010.03 1010.47 1010.74 1010.64 1010.44 1010.66 1010.75 1010.64 1010.40 1009.80 1009.60 1009.44 1009.40 1010.01 1010.63 1010.89 1011.24 1011.73
1013.28 1012.90 1012.53 1012.63 1012.58 1012.11 1011.96 1011.87 1011.77 1011.51 1011.26 1010.60 1010.25 1010.03 1009.76 1009.55 1009.50 1009.49 1009.76 1009.96 1009.83 1010.13 1009.78 1009.60 1009.47 1009.54 1009.79 1009.69 1009.79 1009.62 1009.75 1009.63 1009.48 1009.33 1009.04 1008.93 1009.09 1009.77 1010.07 1010.40 1010.86 1011.19 1011.66
1014.09 1013.46 1013.38 1013.29 1012.76 1012.32 1012.20 1012.00 1011.83 1011.58 1011.59 1011.33 1011.28 1011.31 1010.64 1010.16 1010.53 1010.79 1010.03 1009.18 1008.79 1008.89 1009.23 1009.19 1008.90 1008.79 1008.66 1008.57 1008.56 1008.50 1008.59 1008.75 1009.02 1008.82 1008.64 1008.77 1009.13 1009.50 1009.97 1010.47 1010.45 1011.09 1011.30
1014.73 1013.83 1013.38 1013.02 1012.92 1013.12 1012.99 1012.21 1012.09 1012.16 1012.18 1012.20 1012.08 1011.68 1011.29 1011.43 1010.98 1010.57 1010.15 1009.81 1009.34 1009.28 1009.34 1008.45 1008.33 1007.96 1007.81 1007.74 1007.73 1007.63 1007.67 1007.63 1007.60 1007.80 1007.95 1008.42 1008.83 1009.20 1009.63 1010.12 1010.29 1010.64 1011.19
1015.12 1014.65 1013.78 1013.05 1013.17 1013.31 1013.24 1012.99 1012.58 1011.90 1012.17 1012.19 1012.04 1011.83 1011.64 1011.44 1010.95 1010.48 1010.04 1009.55 1009.09 1009.02 1008.73 1008.05 1007.60 1007.42 1007.12 1006.93 1006.93 1006.86 1006.63 1006.29 1006.45 1006.88 1007.53 1008.07 1008.34 1008.73 1009.20 1009.66 1009.96 1010.22 1010.87
1014.50 1015.15 1014.62 1013.66 1013.35 1013.41 1013.48 1013.41 1013.29 1012.66 1012.11 1011.89 1011.83 1011.93 1011.49 1010.97 1010.70 1010.31 1009.90 1009.32 1009.08 1008.94 1008.43 1007.89 1007.46 1007.03 1006.68 1006.52 1006.35 1006.22 1006.02 1005.94 1006.02 1006.43 1006.83 1007.28 1007.78 1008.30 1008.72 1009.05 1009.35 1009.09 1010.27
1015.26 1014.44 1014.67 1014.36 1014.44 1013.91 1013.63 1013.67 1013.60 1012.82 1012.45 1012.43 1012.17 1011.87 1011.80 1011.37 1010.72 1010.59 1010.12 1009.65 1009.39 1009.20 1008.94 1008.28 1007.84 1007.57 1007.26 1006.77 1006.41 1006.29 1006.00 1005.89 1005.95 1006.04 1006.34 1006.72 1007.11 1007.80 1008.11 1008.55 1009.05 1009.24 1009.81
1014.58 1015.16 1015.11 1014.96 1014.69 1013.69 1013.40 1013.88 1013.42 1012.95 1012.15 1012.53 1012.38 1012.42 1012.36 1011.66 1010.91 1010.54 1010.46 1010.29 1010.23 1010.09 1009.64 1009.12 1008.56 1008.27 1007.96 1007.42 1006.82 1006.11 1005.96 1006.09 1006.16 1006.01 1006.09 1006.39 1006.69 1007.03 1007.42 1007.83 1008.43 1008.72 1009.24
1014.81 1014.49 1014.82 1014.49 1014.32 1014.11 1013.95 1013.60 1013.04 1012.62 1012.36 1012.41 1012.33 1012.72 1012.97 1012.51 1011.61 1011.17 1010.84 1010.89 1010.74 1010.73 1010.33 1010.07 1009.45 1009.10 1008.89 1008.43 1007.95 1006.61 1006.52 1006.45 1006.37 1006.04 1006.12 1006.22 1006.48 1006.60 1006.94 1007.46 1007.96 1008.65 1008.69
1014.32 1014.03 1013.94 1014.08 1014.09 1013.86 1013.45 1012.97 1012.65 1012.21 1012.29 1012.43 1012.27 1012.24 1012.81 1012.40 1012.07 1011.72 1011.45 1011.47 1011.41 1011.10 1010.91 1010.59 1010.33 1009.98 1009.59 1009.27 1008.76 1008.06 1007.59 1007.16 1006.53 1006.27 1006.19 1006.25 1006.48 1006.50 1006.81 1007.33 1007.81 1008.17 1008.68
1013.85 1013.51 1013.43 1013.26 1013.46 1013.39 1012.78 1012.53 1012.32 1012.19 1012.02 1012.14 1012.20 1012.16 1012.05 1011.98 1011.77 1011.61 1011.82 1011.99 1011.79 1011.71 1011.42 1011.01 1010.69 1010.61 1010.13 1009.68 1009.61 1009.30 1008.64 1008.07 1007.64 1007.12 1006.46 1006.39 1006.54 1006.60 1006.80 1007.28 1007.62 1007.96 1008.19
1013.82 1013.32 1013.10 1012.97 1012.88 1012.95 1012.47 1012.31 1012.37 1012.50 1012.38 1012.12 1012.14 1012.14 1012.05 1012.08 1011.72 1011.65 1011.50 1011.55 1011.59 1011.94 1011.96 1011.66 1011.42 1011.07 1010.50 1009.96 1009.77 1009.54 1009.21 1008.73 1008.04 1007.37 1006.72 1006.52 1006.52 1006.70 1006.86 1007.18 1007.56 1007.89 1008.14
1013.47 1013.27 1013.15 1012.96 1012.60 1012.46 1012.57 1012.12 1011.94 1012.04 1012.09 1011.84 1011.76 1011.60 1011.54 1011.82 1011.42 1011.30 1011.34 1011.42 1011.12 1011.25 1011.82 1011.85 1011.74 1011.40 1011.05 1010.34 1009.95 1009.88 1009.76 1009.23 1008.46 1007.73 1006.94 1006.66 1006.37 1006.32 1006.62 1007.11 1007.35 1007.67 1008.02
1013.36 1013.20 1013.05 1012.86 1012.59 1012.41 1012.29 1012.22 1011.97 1011.76 1011.71 1011.49 1011.31 1011.23 1011.33 1011.20 1011.30 1011.14 1010.89 1010.92 1010.97 1011.24 1011.04 1010.94 1011.28 1011.63 1011.38 1010.97 1010.73 1010.33 1009.62 1009.43 1009.04 1008.14 1007.39 1006.98 1006.78 1006.74 1006.79 1006.95 1007.12 1007.33 1007.56
Thickness
5801 5800 5798 5795 5793 5794 5794 5793 5792 5792 5791 5791 5793 5793 5794 5793 5794 5793 5794 5795 5794 5794 5793 5792 5791 5790 5791 5789 5786 5783 5780 5777 5776 5786 5787 5785 5782 5782 5780 5779 5777 5774 5772
5807 5803 5800 5797 5794 5793 5794 5796 5794 5794 5794 5792 5793 5793 5793 5794 5794 5795 5796 5798 5797 5796 5796 5794 5793 5795 5790 5790 5789 5785 5784 5782 5777 5781 5787 5787 5784 5782 5781 5778 5779 5778 5773
5807 5804 5802 5799 5796 5796 5793 5795 5795 5794 5794 5794 5792 5793 5794 5793 5793 5794 5796 5798 5798 5798 5797 5795 5795 5795 5792 5792 5789 5789 5788 5786 5782 5779 5787 5788 5786 5782 5784 5783 5781 5778 5774
5808 5805 5801 5800 5799 5799 5796 5792 5792 5792 5792 5791 5791 5791 5793 5793 5793 5793 5794 5795 5796 5796 5796 5797 5795 5794 5792 5789 5788 5787 5785 5784 5785 5780 5781 5785 5785 5786 5784 5781 5782 5785 5777
5809 5807 5803 5799 5799 5795 5795 5793 5790 5789 5789 5791 5789 5789 5791 5792 5795 5794 5793 5792 5793 5793 5794 5795 5795 5794 5792 5791 5790 5790 5787 5785 5787 5783 5782 5789 5791 5792 5789 5792 5786 5781 5778
5804 5804 5803 5798 5794 5794 5792 5791 5789 5787 5788 5789 5790 5789 5790 5794 5797 5792 5790 5793 5792 5792 5793 5795 5795 5793 5792 5789 5789 5789 5789 5787 5789 5785 5788 5789 5793 5792 5794 5790 5785 5776 5769
5799 5796 5797 5796 5793 5794 5792 5789 5788 5787 5787 5789 5790 5791 5792 5795 5795 5792 5789 5789 5792 5794 5796 5796 5797 5801 5799 5797 5796 5791 5789 5788 5788 5787 5786 5791 5791 5792 5789 5785 5782 5775 5767
5793 5791 5792 5791 5786 5789 5791 5791 5786 5787 5787 5788 5791 5792 5793 5797 5795 5792 5789 5788 5790 5795 5797 5799 5800 5802 5802 5800 5797 5795 5796 5798 5797 5791 5789 5793 5793 5792 5788 5785 5778 5770 5760
5781 5784 5786 5785 5782 5784 5785 5785 5789 5789 5789 5790 5792 5793 5794 5797 5795 5792 5787 5787 5789 5794 5798 5801 5801 5801 5803 5798 5792 5791 5795 5800 5801 5800 5796 5793 5791 5786 5780 5776 5770 5761 5759
5765 5768 5772 5775 5778 5780 5784 5786 5789 5791 5791 5791 5793 5797 5797 5797 5795 5790 5785 5787 5789 5794 5797 5800 5798 5798 5799 5796 5792 5792 5792 5798 5798 5798 5796 5789 5784 5782 5775 5769 5767 5756 5750
5772 5754 5765 5772 5774 5776 5778 5781 5783 5787 5790 5793 5792 5795 5797 5796 5797 5792 5786 5786 5791 5792 5796 5799 5803 5800 5796 5794 5792 5794 5796 5795 5794 5792 5792 5789 5786 5781 5776 5768 5763 5757 5746
5748 5739 5748 5762 5762 5764 5766 5772 5774 5778 5783 5785 5790 5792 5798 5798 5795 5792 5785 5784 5789 5790 5795 5803 5806 5801 5796 5794 5790 5792 5789 5786 5787 5786 5784 5782 5782 5779 5772 5766 5758 5752 5745
5731 5739 5755 5750 5749 5751 5758 5762 5765 5771 5776 5779 5787 5788 5792 5796 5795 5792 5788 5785 5785 5784 5796 5800 5798 5795 5791 5789 5788 5788 5785 5786 5783 5782 5784 5782 5781 5779 5768 5754 5745 5734 5729
5718 5724 5731 5731 5734 5744 5748 5751 5754 5758 5763 5773 5778 5781 5784 5788 5789 5790 5788 5786 5784 5781 5786 5790 5794 5793 5790 5791 5790 5790 5789 5788 5786 5786 5784 5782 5778 5765 5755 5745 5732 5724 5720
5702 5710 5714 5719 5726 5733 5737 5741 5744 5750 5751 5758 5762 5762 5768 5775 5775 5767 5775 5785 5788 5786 5780 5778 5784 5789 5790 5791 5791 5791 5790 5787 5782 5781 5777 5773 5766 5757 5745 5732 5727 5719 5716
5681 5693 5702 5709 5714 5713 5717 5729 5733 5734 5735 5737 5740 5747 5753 5754 5757 5759 5761 5765 5770 5769 5767 5767 5780 5785 5787 5788 5787 5789 5788 5785 5785 5780 5778 5769 5759 5748 5736 5726 5720 5716 5710
5662 5670 5684 5695 5698 5698 5701 5706 5712 5725 5725 5726 5731 5736 5740 5741 5745 5750 5754 5759 5762 5766 5770 5776 5779 5781 5785 5786 5787 5787 5786 5789 5787 5781 5772 5761 5755 5747 5735 5723 5716 5713 5706
5650 5645 5658 5672 5680 5684 5686 5688 5692 5700 5708 5717 5721 5721 5727 5733 5736 5740 5745 5751 5761 5758 5764 5770 5774 5777 5780 5781 5782 5783 5783 5782 5781 5777 5769 5760 5752 5745 5735 5726 5719 5718 5704
5628 5640 5641 5648 5651 5662 5670 5672 5675 5684 5691 5696 5701 5708 5711 5716 5724 5726 5731 5738 5742 5744 5747 5754 5759 5761 5765 5769 5772 5772 5774 5774 5773 5770 5765 5758 5750 5742 5735 5728 5718 5713 5703
5616 5613 5618 5625 5631 5644 5651 5650 5659 5667 5680 5678 5682 5686 5689 5697 5706 5711 5714 5716 5718 5720 5725 5731 5737 5739 5743 5748 5753 5758 5761 5762 5760 5759 5757 5753 5747 5741 5734 5727 5718 5710 5702
5601 5605 5605 5613 5618 5623 5630 5635 5645 5653 5659 5663 5668 5667 5665 5674 5682 5688 5693 5694 5696 5697 5704 5708 5714 5718 5719 5725 5729 5741 5744 5745 5745 5747 5747 5744 5739 5736 5730 5723 5716 5706 5703
5594 5600 5604 5605 5605 5610 5617 5626 5632 5639 5641 5643 5649 5654 5649 5657 5661 5666 5670 5671 5673 5677 5680 5687 5692 5695 5699 5703 5708 5715 5720 5725 5730 5733 5733 5731 5728 5726 5722 5715 5708 5703 5697
5581 5588 5593 5597 5597 5599 5609 5614 5618 5622 5627 5629 5631 5635 5638 5641 5646 5650 5650 5650 5653 5655 5660 5665 5670 5674 5679 5683 5685 5690 5697 5702 5706 5711 5718 5717 5715 5715 5712 5706 5701 5696 5691
5562 5571 5575 5580 5584 5585 5592 5597 5600 5598 5603 5610 5612 5615 5618 5620 5627 5631 5634 5637 5639 5638 5639 5643 5646 5651 5658 5664 5667 5670 5676 5682 5688 5694 5702 5703 5703 5701 5699 5696 5692 5687 5683
5547 5551 5556 5560 5566 5570 5571 5578 5583 5585 5587 5592 5595 5598 5601 5603 5610 5614 5616 5617 5623 5625 5623 5625 5628 5631 5636 5644 5649 5651 5655 5662 5670 5678 5683 5688 5691 5692 5689 5684 5682 5679 5674
5527 5531 5535 5539 5544 5549 5553 5556 5561 5565 5567 5573 5577 5580 5581 5585 5587 5592 5598 5601 5603 5603 5608 5610 5610 5610 5614 5620 5626 5632 5641 5644 5649 5658 5664 5670 5673 5674 5675 5674 5673 5670 5668